{"data":{"norad_id":67721,"intl_designator":"2026-026A","name":"STARLINK-36772","alt_names":[],"object_type":"PAYLOAD","status":"ACTIVE","operator":null,"country":"US","launch_date":"2026-02-11","launch_site_code":"AFWTR","launch_vehicle":null,"mission":null,"orbit_class":"UNKNOWN","rcs_meters":null,"size_class":null,"mass_kg":null,"dimensions":null,"purposes":["comms"],"wikipedia_slug":null,"has_3d_model":false,"image_url":null,"decayed_at":null,"tle_current":{"epoch":"2026-09-19T09:02:47.043168Z","epoch_age_seconds":163534,"freshness":"FRESH","line1":"1 67721U 26026A   26262.37693337  .00026049  00000+0  80573-3 0  9994","line2":"2 67721  97.2832 314.1490 0000638  83.4818 276.6497 15.33472586 33806","mean_motion":15.33472586,"eccentricity":6.38e-5,"inclination_deg":97.2832,"raan_deg":314.149,"arg_perigee_deg":83.4818,"mean_anomaly_deg":276.6497,"bstar":0.00080573,"rev_number":3380,"period_min":93.904515355973,"perigee_km":465.02447762222,"apogee_km":465.89772073967,"semimajor_km":6843.5980991809,"source":"CELESTRAK","updated_at":"2026-09-20T09:00:43.656252Z"}}}